Location: Zagreb
(45.8000°N, 16.0000°E)
Time: 15:38:56
(UTC+02:00)

Transit 2A Rocket - Pass Details

Date: 16 August 2022
Orbit: 593 x 907 km, 66.7° (Epoch: 25 September)

Event Time Altitude Azimuth Distance (km) Brightness Sun altitude
Rises 03:13:09 0° 325° (NW) 2,863 8.2 -23.3°
Reaches altitude 10° 03:15:21 10° 323° (NW) 1,977 7.3 -23.1°
Maximum altitude 03:19:45 70° 240° (WSW) 680 4.5 -22.6°
Enters shadow 03:19:48 70° 235° (SW) 681 4.5 -22.6°
Drops below altitude 10° 03:24:27 10° 157° (SSE) 2,104 - -22.1°
Sets 03:26:52 0° 155° (SSE) 3,065 - -21.9°
